This is the latest recevied weather packets stored in our database for station/object KC7WRB. If no packets are shown the sender has not sent any weather packets the latest 10 day(s).
| Time | Temp. | Humidity | Pressure | Rain* | Wind** | Luminosity | Snow |
|---|---|---|---|---|---|---|---|
| 1778299302 | 19.44° C | 25% | 1018.7 hPa | 0 mm | - | 0 W/m² | - |
| 1778298999 | 18.89° C | 25% | 1018.5 hPa | 0 mm | - | 0 W/m² | - |
| 1778298696 | 18.89° C | 25% | 1018.4 hPa | 0 mm | - | 0 W/m² | - |
| 1778298393 | 20° C | 23% | 1018.4 hPa | 0 mm | - | 0 W/m² | - |
| 1778298090 | 20.56° C | 22% | 1018.4 hPa | 0 mm | - | 0 W/m² | - |
| 1778297787 | 20.56° C | 22% | 1018.3 hPa | 0 mm | - | 0 W/m² | - |
| 1778297484 | 21.11° C | 21% | 1018.2 hPa | 0 mm | - | 0 W/m² | - |
| 1778297182 | 21.11° C | 20% | 1018 hPa | 0 mm | - | 0 W/m² | - |
| 1778296878 | 21.11° C | 21% | 1018 hPa | 0 mm | - | 0 W/m² | - |
| 1778296576 | 21.11° C | 21% | 1018.2 hPa | 0 mm | - | 0 W/m² | - |
| 1778296273 | 21.11° C | 20% | 1018 hPa | 0 mm | - | 1 W/m² | - |
| 1778295971 | 21.67° C | 19% | 1018 hPa | 0 mm | - | 1 W/m² | - |
| 1778295668 | 21.67° C | 18% | 1018 hPa | 0 mm | - | 3 W/m² | - |
| 1778295364 | 21.67° C | 18% | 1017.9 hPa | 0 mm | - | 5 W/m² | - |
| 1778295060 | 21.67° C | 19% | 1018 hPa | 0 mm | - | 7 W/m² | - |
| 1778294756 | 21.67° C | 18% | 1017.8 hPa | 0 mm | - | 11 W/m² | - |
| 1778294452 | 22.22° C | 18% | 1017.9 hPa | 0 mm | - | 14 W/m² | - |
| 1778294150 | 21.67° C | 18% | 1017.7 hPa | 0 mm | - | 17 W/m² | - |
| 1778293847 | 22.78° C | 19% | 1017.9 hPa | 0 mm | - | 21 W/m² | - |
| 1778293543 | 23.33° C | 17% | 1017.8 hPa | 0 mm | - | 25 W/m² | - |
| 1778293241 | 23.89° C | 17% | 1017.4 hPa | 0 mm | - | 30 W/m² | - |
| 1778292938 | 23.89° C | 17% | 1017.6 hPa | 0 mm | - | 34 W/m² | - |
| 1778292635 | 24.44° C | 17% | 1017.7 hPa | 0 mm | - | 39 W/m² | - |
| 1778292333 | 24.44° C | 17% | 1017.6 hPa | 0 mm | - | 47 W/m² | - |
| 1778292029 | 24.44° C | 16% | 1017.2 hPa | 0 mm | - | 59 W/m² | - |
* Rain latest hour (hover to see other rain measurements)
** Current wind speed in m/s (hover to see current wind gust speed)